Resolute,

11:40 AM CDT on April 23, 2018 (GMT -0500)
Resolute

Weather History for CYRB - February, 2013

Change the Weather History Date:

Wednesday, February 13, 2013

  Actual Average Record
Temperature  
Mean Temperature -16 °F -  
Max Temperature -11 °F -20 °F -2 °F (2012)
Min Temperature -25 °F -33 °F -40 °F (2002)
Degree Days  
Heating Degree Days 82    
Moisture  
Dew Point -30 °F    
Average Humidity 47    
Maximum Humidity 53    
Minimum Humidity 14    
Precipitation  
Precipitation 0.00 in 0.01 in - ()
Sea Level Pressure  
Sea Level Pressure 29.81 in    
Wind  
Wind Speed 9 mph ()    
Max Wind Speed 18 mph    
Max Gust Speed 18 mph    
Visibility 13.9 miles    
Events Snow    
Averages and records for this station are not official NWS values.
T = Trace of Precipitation, MM = Missing Value Source: Averaged Metar Reports

Daily Weather History Graph

Daily Weather History Graph

Search for Another Location

Airport or City:

Astronomy

Feb. 13, 2013 Rise Set
Actual Time 10:05 AM CST 3:04 PM CST
Civil Twilight 8:20 AM CST 4:49 PM CST
Nautical Twilight 6:45 AM CST 6:25 PM CST
Astronomical Twilight 5:13 AM CST 7:58 PM CST
Moon 7:36 AM CST (2/13) 11:47 PM CST (2/13)
Length of Visible Light 8h 28m
Length of Day
4h 58m
Waxing Crescent, 14% of the Moon is Illuminated
Feb 13
Waxing Crescent
Feb 17
First Quarter
Feb 25
Full
Mar 4
Last Quarter
Mar 11
New

Hourly Weather History & Observations

Time (CST) Temp. Windchill Dew Point Humidity Pressure Visibility Wind Dir Wind Speed Gust Speed Precip Events Conditions
12:00 AM -16 °F - -30 °F 31% 29.72 in 15 mi East 18.4 mph - -   Partly Cloudy
12:00 AM -16.6 °F -42.9 °F -29.2 °F 53% 29.72 in 15.0 mi East 18.4 mph - N/A Snow Low Drifting Snow
1:00 AM -18.4 °F -41.2 °F -31.0 °F 53% 29.72 in 15.0 mi East 12.7 mph - N/A   Partly Cloudy
2:00 AM -18.4 °F -35.1 °F -31.0 °F 53% 29.74 in 15.0 mi ESE 6.9 mph - N/A   Partly Cloudy
3:00 AM -16.6 °F -35.7 °F -29.2 °F 53% 29.75 in 15.0 mi East 9.2 mph - N/A   Scattered Clouds
4:00 AM -16.6 °F -34.4 °F -31.0 °F 48% 29.75 in 15.0 mi East 8.1 mph - N/A   Partly Cloudy
5:00 AM -16.6 °F -31.3 °F -31.0 °F 48% 29.77 in 15.0 mi ENE 5.8 mph - N/A   Partly Cloudy
6:00 AM -7 °F - -30 °F 14% 29.77 in 15 mi Calm Calm - -   Scattered Clouds
6:00 AM -18.4 °F - -31.0 °F 53% 29.77 in 15.0 mi Calm Calm - N/A   Partly Cloudy
7:00 AM -16.6 °F -35.7 °F -31.0 °F 48% 29.77 in 15.0 mi NE 9.2 mph - N/A   Partly Cloudy
8:00 AM -16.6 °F -36.8 °F -29.2 °F 53% 29.77 in 15.0 mi ENE 10.4 mph - N/A   Partly Cloudy
9:00 AM -14.8 °F -37.5 °F -29.2 °F 48% 29.78 in 15.0 mi NE 13.8 mph - N/A   Scattered Clouds
10:00 AM -14.8 °F -37.5 °F -29.2 °F 48% 29.78 in 15.0 mi NE 13.8 mph - N/A   Mostly Cloudy
11:00 AM -13.0 °F -35.2 °F -27.4 °F 49% 29.79 in 15.0 mi NE 13.8 mph - N/A   Partly Cloudy
12:00 PM -15 °F - -29 °F 31% 29.80 in 15 mi NE 15.0 mph - -   Scattered Clouds
12:00 PM -14.8 °F -38.3 °F -29.2 °F 48% 29.80 in 15.0 mi NE 15.0 mph - N/A   Partly Cloudy
1:00 PM -14.8 °F -37.5 °F -29.2 °F 48% 29.81 in 15.0 mi NE 13.8 mph - N/A   Partly Cloudy
2:00 PM -16.6 °F -38.9 °F -29.2 °F 53% 29.82 in 15.0 mi ENE 12.7 mph - N/A   Scattered Clouds
2:45 PM - - - N/A% - 9.0 mi Calm Calm - N/A   Unknown
3:00 PM -16.6 °F -26.8 °F -31.0 °F 48% 29.83 in 8.0 mi East 3.5 mph - N/A Snow Light Snow
4:00 PM -14.8 °F -33.5 °F -29.2 °F 48% 29.84 in 10.0 mi ENE 9.2 mph - N/A Snow Light Snow
5:00 PM -18.4 °F -41.2 °F -31.0 °F 53% 29.86 in 12.0 mi ENE 12.7 mph 18.4 mph N/A Snow Light Snow
6:00 PM -16 °F - -30 °F 29% 29.87 in 12 mi NE 5.8 mph - - Snow Light Snow
6:00 PM -16.6 °F -31.3 °F -31.0 °F 48% 29.87 in 12.0 mi NE 5.8 mph - N/A Snow Light Snow
7:00 PM -14.8 °F -30.8 °F -29.2 °F 48% 29.87 in 12.0 mi East 6.9 mph - N/A Snow Light Snow
8:00 PM -14.8 °F - -29.2 °F 48% 29.89 in 12.0 mi Calm Calm - N/A Snow Light Snow
9:00 PM -14.8 °F - -27.4 °F 53% 29.89 in 15.0 mi Calm Calm - N/A Snow Light Snow
10:00 PM -22.0 °F - -34.6 °F 52% 29.90 in 15.0 mi Calm Calm - N/A Snow Light Snow
11:00 PM -25.6 °F -43.8 °F -38.2 °F 52% 29.91 in 15.0 mi SE 6.9 mph - N/A Snow Light Snow